Weather History for KGLY - February, 2013

Change the Weather History Date:

Monday, February 18, 2013

  Actual Average (KDMO) Record (KDMO)
Temperature  
Mean Temperature 46 °F 37 °F  
Max Temperature 59 °F 47 °F 71 °F (1948)
Min Temperature 30 °F 28 °F -16 °F (1978)
Degree Days  
Heating Degree Days 20 28  
Month to date heating degree days 542  
Since 1 July heating degree days 3357  
Cooling Degree Days 0 0  
Month to date cooling degree days 0  
Year to date cooling degree days 0  
Moisture  
Dew Point 36 °F    
Average Humidity 68    
Maximum Humidity 94    
Minimum Humidity 47    
Precipitation  
Precipitation 0.00 in 0.07 in 1.78 in (1961)
Month to date precipitation 1.26  
Year to date precipitation 2.93  
Sea Level Pressure  
Sea Level Pressure 29.74 in    
Wind  
Wind Speed 14 mph (SW)    
Max Wind Speed 23 mph    
Max Gust Speed 32 mph    
Visibility 9 miles    
Events Rain , Thunderstorm    
T = Trace of Precipitation, MM = Missing Value Source: NWS Daily Summary

Daily Weather History Graph

Daily Weather History Graph

Search for Another Location

Airport or City:

Trip Planner

Search our weather history database for the weather conditions in past years. The results will help you decide how hot, cold, wet, or windy it might be!

Date:

Astronomy

Feb. 18, 2013 Rise Set
Actual Time 7:01 AM CST 5:56 PM CST
Civil Twilight 6:34 AM CST 6:23 PM CST
Nautical Twilight 6:03 AM CST 6:54 PM CST
Astronomical Twilight 5:32 AM CST 7:25 PM CST
Moon 11:45 AM CST (2/18) 1:39 AM CST (2/18)
Length of Visible Light 11h 49m
Length of Day
10h 55m
First Quarter, 58% of the Moon is Illuminated
Feb 18
First Quarter
Feb 25
Full
Mar 4
Last Quarter
Mar 11
New
Mar 19
First Quarter

Hourly Weather History & Observations

Time (CST) Temp. Windchill Dew Point Humidity Pressure Visibility Wind Dir Wind Speed Gust Speed Precip Events Conditions
12:15 AM 51.8 °F - 32.0 °F 47% 29.76 in 10.0 mi South 11.5 mph - N/A   Clear
12:35 AM 51.8 °F - 32.0 °F 47% 29.75 in 10.0 mi South 13.8 mph 20.7 mph N/A   Clear
12:55 AM 51.8 °F - 32.0 °F 47% 29.75 in 10.0 mi South 16.1 mph 23.0 mph N/A   Clear
1:15 AM 51.8 °F - 32.0 °F 47% 29.74 in 10.0 mi South 12.7 mph 19.6 mph N/A   Clear
1:35 AM 51.8 °F - 32.0 °F 47% 29.73 in 10.0 mi South 12.7 mph - N/A   Clear
1:55 AM 51.8 °F - 32.0 °F 47% 29.73 in 10.0 mi South 11.5 mph - N/A   Clear
2:15 AM 50.0 °F - 32.0 °F 50% 29.72 in 10.0 mi South 10.4 mph - N/A   Clear
2:35 AM 50.0 °F - 32.0 °F 50% 29.71 in 10.0 mi SSE 12.7 mph - N/A   Clear
2:55 AM 51.8 °F - 32.0 °F 47% 29.70 in 10.0 mi South 11.5 mph - N/A   Clear
3:15 AM 51.8 °F - 32.0 °F 47% 29.69 in 10.0 mi SSE 11.5 mph - N/A   Clear
3:35 AM 50.0 °F - 32.0 °F 50% 29.68 in 10.0 mi SSE 13.8 mph - N/A   Clear
4:15 AM 50.0 °F - 33.8 °F 54% 29.66 in 10.0 mi SSE 13.8 mph - N/A   Clear
4:35 AM 50.0 °F - 33.8 °F 54% 29.66 in 10.0 mi South 11.5 mph - N/A   Clear
4:55 AM 50.0 °F - 33.8 °F 54% 29.65 in 10.0 mi South 11.5 mph - N/A   Clear
5:15 AM 51.8 °F - 33.8 °F 50% 29.65 in 10.0 mi South 11.5 mph - N/A   Clear
5:35 AM 51.8 °F - 35.6 °F 54% 29.65 in 10.0 mi South 13.8 mph - N/A   Clear
5:55 AM 53.6 °F - 37.4 °F 54% 29.64 in 10.0 mi South 11.5 mph 20.7 mph N/A   Clear
6:15 AM 53.6 °F - 37.4 °F 54% 29.63 in 10.0 mi South 15.0 mph 24.2 mph N/A   Clear
6:35 AM 53.6 °F - 39.2 °F 58% 29.62 in 10.0 mi South 16.1 mph 21.9 mph N/A   Clear
6:55 AM 53.6 °F - 39.2 °F 58% 29.63 in 10.0 mi South 13.8 mph 21.9 mph N/A   Clear
7:15 AM 53.6 °F - 41.0 °F 62% 29.64 in 10.0 mi South 17.3 mph 24.2 mph N/A   Mostly Cloudy
7:35 AM 55.4 °F - 42.8 °F 63% 29.64 in 9.0 mi South 15.0 mph 23.0 mph N/A   Overcast
8:15 AM 55.4 °F - 44.6 °F 67% 29.64 in 10.0 mi South 10.4 mph 27.6 mph N/A   Overcast
8:35 AM 55.4 °F - 44.6 °F 67% 29.63 in 9.0 mi South 15.0 mph 25.3 mph N/A   Overcast
8:55 AM 55.4 °F - 44.6 °F 67% 29.63 in 10.0 mi South 12.7 mph 19.6 mph N/A   Overcast
9:15 AM 57.2 °F - 44.6 °F 63% 29.63 in 9.0 mi South 16.1 mph 27.6 mph N/A   Mostly Cloudy
9:35 AM 57.2 °F - 46.4 °F 67% 29.62 in 9.0 mi South 17.3 mph 26.5 mph N/A   Mostly Cloudy
9:55 AM 57.2 °F - 46.4 °F 67% 29.61 in 10.0 mi South 16.1 mph 29.9 mph N/A   Mostly Cloudy
10:15 AM 57.2 °F - 46.4 °F 67% 29.61 in 10.0 mi SSW 16.1 mph 24.2 mph N/A   Mostly Cloudy
10:35 AM 59.0 °F - 46.4 °F 63% 29.61 in 10.0 mi South 18.4 mph 27.6 mph N/A   Overcast
10:55 AM 57.2 °F - 46.4 °F 67% 29.60 in 8.0 mi South 10.4 mph 18.4 mph N/A   Overcast
11:15 AM 57.2 °F - 48.2 °F 72% 29.60 in 5.0 mi South 13.8 mph 18.4 mph N/A   Light Drizzle
11:35 AM 57.2 °F - 48.2 °F 72% 29.59 in 9.0 mi South 8.1 mph - N/A   Mostly Cloudy
11:55 AM 57.2 °F - 48.2 °F 72% 29.58 in 8.0 mi South 11.5 mph 17.3 mph N/A   Mostly Cloudy
12:15 PM 57.2 °F - 48.2 °F 72% 29.58 in 5.0 mi South 10.4 mph 16.1 mph N/A   Haze
12:35 PM 55.4 °F - 51.8 °F 88% 29.57 in 2.0 mi SSW 15.0 mph 20.7 mph N/A Rain Light Rain
12:55 PM 53.6 °F - 48.2 °F 82% 29.54 in 1.5 mi SW 13.8 mph 26.5 mph N/A   Haze
1:15 PM 53.6 °F - 51.8 °F 94% 29.54 in 1.2 mi SW 19.6 mph 24.2 mph N/A Rain Rain
1:35 PM 51.8 °F - 48.2 °F 88% 29.52 in 1.0 mi SSW 15.0 mph 26.5 mph N/A Rain , Thunderstorm Thunderstorms and Rain
1:55 PM 51.8 °F - 50.0 °F 94% 29.56 in 1.5 mi West 16.1 mph 26.5 mph N/A Rain Rain
2:15 PM 46.4 °F 39.2 °F 44.6 °F 93% 29.60 in 2.0 mi NW 18.4 mph 26.5 mph N/A Rain , Thunderstorm Light Rain
2:35 PM 42.8 °F 34.0 °F 41.0 °F 93% 29.61 in 7.0 mi NW 20.7 mph 27.6 mph N/A Thunderstorm Thunderstorm
2:55 PM 42.8 °F 33.5 °F 39.2 °F 87% 29.63 in 6.0 mi NW 23.0 mph 31.1 mph N/A Thunderstorm Overcast
3:15 PM 42.8 °F 33.8 °F 39.2 °F 87% 29.66 in 7.0 mi NW 21.9 mph 31.1 mph N/A   Overcast
3:35 PM 42.8 °F 33.8 °F 37.4 °F 81% 29.68 in 8.0 mi NNW 21.9 mph 32.2 mph N/A   Overcast
3:55 PM 42.8 °F 34.5 °F 37.4 °F 81% 29.71 in 8.0 mi NW 18.4 mph 24.2 mph N/A   Overcast
4:15 PM 42.8 °F 33.5 °F 37.4 °F 81% 29.73 in 9.0 mi NW 23.0 mph 27.6 mph N/A   Overcast
4:35 PM 42.8 °F 35.8 °F 35.6 °F 76% 29.75 in 10.0 mi NW 13.8 mph 19.6 mph N/A   Overcast
4:55 PM 42.8 °F 34.0 °F 35.6 °F 76% 29.77 in 9.0 mi NNW 20.7 mph 26.5 mph N/A   Overcast
5:15 PM 41.0 °F 32.2 °F 33.8 °F 76% 29.81 in 9.0 mi NW 18.4 mph 29.9 mph N/A   Overcast
5:35 PM 39.2 °F 29.3 °F 32.0 °F 75% 29.82 in 9.0 mi NNW 20.7 mph 28.8 mph N/A   Overcast
5:55 PM 37.4 °F 27.5 °F 32.0 °F 81% 29.85 in 10.0 mi NW 18.4 mph 27.6 mph N/A   Overcast
6:15 PM 37.4 °F 28.2 °F 32.0 °F 81% 29.87 in 10.0 mi NW 16.1 mph 23.0 mph N/A   Overcast
6:35 PM 37.4 °F 28.2 °F 32.0 °F 81% 29.89 in 10.0 mi NW 16.1 mph 25.3 mph N/A   Mostly Cloudy
7:15 PM 35.6 °F 25.9 °F 30.2 °F 81% 29.92 in 10.0 mi NW 16.1 mph 24.2 mph N/A   Overcast
7:35 PM 35.6 °F 28.6 °F 30.2 °F 81% 29.94 in 10.0 mi NW 9.2 mph - N/A   Mostly Cloudy
7:55 PM 35.6 °F 27.1 °F 28.4 °F 75% 29.96 in 10.0 mi NW 12.7 mph 19.6 mph N/A   Mostly Cloudy
8:15 PM 35.6 °F 26.2 °F 28.4 °F 75% 29.97 in 10.0 mi WNW 15.0 mph 19.6 mph N/A   Mostly Cloudy
8:35 PM 33.8 °F 24.3 °F 26.6 °F 75% 29.98 in 10.0 mi WNW 13.8 mph 19.6 mph N/A   Partly Cloudy
8:55 PM 33.8 °F 24.8 °F 24.8 °F 70% 30.00 in 10.0 mi NW 12.7 mph 19.6 mph N/A   Clear
9:15 PM 32.0 °F 21.2 °F 24.8 °F 75% 30.02 in 10.0 mi NW 16.1 mph 19.6 mph N/A   Partly Cloudy
9:55 PM 32.0 °F 22.1 °F 21.2 °F 64% 30.04 in 10.0 mi NW 13.8 mph 23.0 mph N/A   Clear
10:15 PM 32.0 °F 24.2 °F 21.2 °F 64% 30.05 in 10.0 mi WNW 9.2 mph - N/A   Clear
10:35 PM 32.0 °F 24.2 °F 21.2 °F 64% 30.06 in 10.0 mi WNW 9.2 mph - N/A   Clear
10:55 PM 32.0 °F 24.2 °F 21.2 °F 64% 30.06 in 10.0 mi WNW 9.2 mph - N/A   Clear
11:15 PM 32.0 °F 25.6 °F 21.2 °F 64% 30.07 in 10.0 mi West 6.9 mph - N/A   Clear
11:35 PM 32.0 °F 24.8 °F 21.2 °F 64% 30.07 in 10.0 mi West 8.1 mph - N/A   Clear
11:55 PM 30.2 °F 21.9 °F 21.2 °F 69% 30.09 in 10.0 mi West 9.2 mph - N/A   Clear